Tracking 30070 objects as of 16-Jan-2025
HD Live streaming from Space Station
objects crossing your sky now

STARLINK-2483

Track STARLINK-2483 now!
10-day predictions
STARLINK-2483 is classified as:


NORAD ID: 48140
Int'l Code: 2021-027BA
Perigee: 553.3 km
Apogee: 555.5 km
Inclination: 53.1 °
Period: 95.6 minutes
Semi major axis: 6925 km
RCS: Unknown
Launch date: April 7, 2021
Source: United States (US)
Launch site: AIR FORCE EASTERN TEST RANGE (AFETR)
Your satellite tracking list
Your tracking list is empty




NASA's NSSDC Master Catalog

Two Line Element Set (TLE):
1 48140U 21027BA  25015.80751080  .00000526  00000-0  54231-4 0  9993
2 48140  53.0532 248.1166 0001588  83.6501 276.4669 15.06396806209027
Source of the keplerian elements: AFSPC